Jackson, MN

2:29 AM CST on February 09, 2016 (GMT -0600)
Jackson Municipal

Weather History for KMJQ - March, 2013

Change the Weather History Date:

Tuesday, March 12, 2013

  Actual Average Record
Temperature  
Mean Temperature 26 °F -  
Max Temperature 30 °F 33 °F 68 °F (2015)
Min Temperature 21 °F 19 °F -4 °F (1998)
Degree Days  
Heating Degree Days 38    
Moisture  
Dew Point 20 °F    
Average Humidity 76    
Maximum Humidity 93    
Minimum Humidity 64    
Precipitation  
Precipitation 0.00 in - - ()
Sea Level Pressure  
Sea Level Pressure 30.02 in    
Wind  
Wind Speed 18 mph (NW)    
Max Wind Speed 33 mph    
Max Gust Speed 40 mph    
Visibility 6 miles    
Events Snow    
Averages and records for this station are not official NWS values.
T = Trace of Precipitation, MM = Missing Value Source: NWS Daily Summary

Daily Weather History Graph

Daily Weather History Graph

Search for Another Location

Airport or City:

Trip Planner

Search our weather history database for the weather conditions in past years. The results will help you decide how hot, cold, wet, or windy it might be!

Date:

Astronomy

Mar. 12, 2013 Rise Set
Actual Time 7:36 AM CDT 7:22 PM CDT
Civil Twilight 7:08 AM CDT 7:51 PM CDT
Nautical Twilight 6:35 AM CDT 8:24 PM CDT
Astronomical Twilight 6:01 AM CDT 8:58 PM CDT
Moon 7:41 AM CDT (3/12) 8:43 PM CDT (3/12)
Length of Visible Light 12h 43m
Length of Day
11h 45m
New Moon, 1% of the Moon is Illuminated
Mar 12
New Moon
Mar 19
First Quarter
Mar 27
Full
Apr 2
Last Quarter
Apr 10
New

Hourly Weather History & Observations

Time (CDT) Temp. Windchill Dew Point Humidity Pressure Visibility Wind Dir Wind Speed Gust Speed Precip Events Conditions
12:12 AM 30.2 °F 19.3 °F 21.2 °F 69% 29.88 in 10.0 mi WNW 15.0 mph 20.7 mph N/A   Overcast
12:33 AM 30.2 °F 18.5 °F 21.2 °F 69% 29.88 in 10.0 mi NW 17.3 mph - N/A   Overcast
12:52 AM 30.2 °F 20.8 °F 23.0 °F 75% 29.88 in 10.0 mi WNW 11.5 mph - N/A   Overcast
1:13 AM 30.2 °F 20.8 °F 23.0 °F 75% 29.88 in 10.0 mi WNW 11.5 mph - N/A   Overcast
1:33 AM 30.2 °F 19.8 °F 23.0 °F 75% 29.88 in 10.0 mi WNW 13.8 mph - N/A   Overcast
1:52 AM 30.2 °F 20.2 °F 23.0 °F 75% 29.88 in 10.0 mi WNW 12.7 mph - N/A   Overcast
2:12 AM 30.2 °F 21.3 °F 23.0 °F 75% 29.89 in 10.0 mi WNW 10.4 mph - N/A   Overcast
2:33 AM 30.2 °F 21.9 °F 23.0 °F 75% 29.88 in 10.0 mi West 9.2 mph - N/A   Mostly Cloudy
2:52 AM 30.2 °F 20.8 °F 23.0 °F 75% 29.89 in 10.0 mi West 11.5 mph - N/A   Clear
3:12 AM 30.2 °F 20.2 °F 23.0 °F 75% 29.88 in 10.0 mi West 12.7 mph - N/A   Scattered Clouds
3:32 AM 28.4 °F 17.5 °F 23.0 °F 80% 29.88 in 10.0 mi West 13.8 mph - N/A   Clear
3:52 AM 28.4 °F 17.5 °F 23.0 °F 80% 29.88 in 10.0 mi West 13.8 mph - N/A   Clear
4:12 AM 28.4 °F 18.0 °F 23.0 °F 80% 29.88 in 10.0 mi West 12.7 mph - N/A   Mostly Cloudy
4:32 AM 28.4 °F 18.5 °F 23.0 °F 80% 29.87 in 10.0 mi West 11.5 mph - N/A   Overcast
4:53 AM 28.4 °F 18.0 °F 23.0 °F 80% 29.87 in 10.0 mi West 12.7 mph - N/A   Scattered Clouds
5:12 AM 28.4 °F 17.0 °F 23.0 °F 80% 29.88 in 10.0 mi West 15.0 mph 20.7 mph N/A   Clear
5:32 AM 28.4 °F 16.6 °F 23.0 °F 80% 29.88 in 10.0 mi West 16.1 mph 19.6 mph N/A Snow Light Snow
5:53 AM 28.4 °F 16.2 °F 23.0 °F 80% 29.88 in 10.0 mi West 17.3 mph - N/A   Mostly Cloudy
6:12 AM 28.4 °F 15.8 °F 23.0 °F 80% 29.88 in 7.0 mi West 18.4 mph 23.0 mph N/A Snow Light Snow
6:32 AM 28.4 °F 16.6 °F 24.8 °F 86% 29.89 in 3.0 mi West 16.1 mph 21.9 mph N/A Snow Light Snow
6:53 AM 28.4 °F 17.0 °F 24.8 °F 86% 29.89 in 4.0 mi West 15.0 mph 20.7 mph N/A Snow Light Snow
7:12 AM 28.4 °F 16.6 °F 26.6 °F 93% 29.90 in 3.0 mi West 16.1 mph - N/A Snow Light Snow
7:32 AM 28.4 °F 16.6 °F 26.6 °F 93% 29.90 in 5.0 mi WNW 16.1 mph 21.9 mph N/A Snow Light Snow
7:53 AM 28.4 °F 15.8 °F 26.6 °F 93% 29.90 in 1.2 mi WNW 18.4 mph 24.2 mph N/A Snow Light Snow
8:12 AM 28.4 °F 14.7 °F 24.8 °F 86% 29.91 in 4.0 mi WNW 21.9 mph 25.3 mph N/A Snow Light Snow
8:32 AM 30.2 °F 18.5 °F 24.8 °F 80% 29.91 in 4.0 mi WNW 17.3 mph 25.3 mph N/A Snow Light Snow
8:53 AM 28.4 °F 14.4 °F 23.0 °F 80% 29.93 in 1.2 mi NW 23.0 mph 32.2 mph N/A Snow Light Snow
9:12 AM 26.6 °F 12.0 °F 23.0 °F 86% 29.94 in 2.0 mi NW 23.0 mph 26.5 mph N/A Snow Light Snow
9:32 AM 26.6 °F 13.1 °F 21.2 °F 80% 29.95 in 0.8 mi NW 19.6 mph 34.5 mph N/A Snow Light Snow
9:53 AM 24.8 °F 10.0 °F 19.4 °F 80% 29.96 in 1.5 mi NW 21.9 mph - N/A   Haze
10:12 AM 24.8 °F 8.4 °F 17.6 °F 74% 29.97 in 4.0 mi NW 27.6 mph 31.1 mph N/A   Haze
10:32 AM 23.0 °F 8.0 °F 17.6 °F 80% 29.98 in 2.5 mi NNW 20.7 mph 31.1 mph N/A   Haze
10:52 AM 23.0 °F 7.6 °F 17.6 °F 80% 29.99 in 1.8 mi NNW 21.9 mph 33.4 mph N/A   Haze
11:12 AM 23.0 °F 7.6 °F 17.6 °F 80% 30.00 in 2.5 mi NNW 21.9 mph 34.5 mph N/A   Haze
11:33 AM 24.8 °F 8.4 °F 17.6 °F 74% 30.01 in 2.5 mi NNW 27.6 mph 32.2 mph N/A   Haze
11:52 AM 24.8 °F 9.3 °F 19.4 °F 80% 30.03 in 5.0 mi NW 24.2 mph 32.2 mph N/A   Haze
12:12 PM 24.8 °F 9.3 °F 17.6 °F 74% 30.03 in 2.5 mi NW 24.2 mph 34.5 mph N/A   Haze
12:33 PM 24.8 °F 8.4 °F 17.6 °F 74% 30.03 in 2.5 mi NNW 27.6 mph 34.5 mph N/A   Haze
12:53 PM 26.6 °F 10.0 °F 17.6 °F 69% 30.04 in 2.5 mi NW 31.1 mph 39.1 mph N/A   Haze
1:12 PM 26.6 °F 12.0 °F 17.6 °F 69% 30.05 in 2.5 mi NW 23.0 mph 35.7 mph N/A   Haze
1:33 PM 26.6 °F 10.6 °F 17.6 °F 69% 30.06 in 2.5 mi NW 28.8 mph 35.7 mph N/A   Haze
1:52 PM 26.6 °F 12.0 °F 19.4 °F 74% 30.06 in 2.0 mi NW 23.0 mph 32.2 mph N/A Snow Light Snow
2:12 PM 26.6 °F 10.8 °F 19.4 °F 74% 30.06 in 5.0 mi NW 27.6 mph 33.4 mph N/A   Haze
2:33 PM 26.6 °F 11.7 °F 17.6 °F 69% 30.06 in 4.0 mi NW 24.2 mph 38.0 mph N/A   Haze
2:52 PM 26.6 °F 11.1 °F 17.6 °F 69% 30.07 in 2.0 mi NW 26.5 mph 35.7 mph N/A Snow Light Snow
3:12 PM 26.6 °F 11.1 °F 19.4 °F 74% 30.07 in 2.0 mi NW 26.5 mph 32.2 mph N/A Snow Light Snow
3:33 PM 26.6 °F 12.4 °F 17.6 °F 69% 30.07 in 2.0 mi NW 21.9 mph 35.7 mph N/A Snow Light Snow
3:52 PM 26.6 °F 11.1 °F 17.6 °F 69% 30.08 in 2.5 mi NW 26.5 mph 40.3 mph N/A   Haze
4:12 PM 26.6 °F 11.7 °F 19.4 °F 74% 30.09 in 3.0 mi NW 24.2 mph 31.1 mph N/A Snow Light Snow
4:33 PM 26.6 °F 11.4 °F 17.6 °F 69% 30.09 in 4.0 mi NW 25.3 mph 33.4 mph N/A Snow Light Snow
4:52 PM 26.6 °F 10.3 °F 17.6 °F 69% 30.09 in 4.0 mi NW 29.9 mph 35.7 mph N/A   Haze
5:12 PM 26.6 °F 11.4 °F 17.6 °F 69% 30.10 in 4.0 mi NW 25.3 mph 34.5 mph N/A Snow Light Snow
5:33 PM 26.6 °F 11.1 °F 17.6 °F 69% 30.10 in 5.0 mi NW 26.5 mph 33.4 mph N/A   Haze
5:52 PM 26.6 °F 11.4 °F 17.6 °F 69% 30.10 in 7.0 mi WNW 25.3 mph 35.7 mph N/A   Overcast
6:13 PM 26.6 °F 11.1 °F 17.6 °F 69% 30.10 in 5.0 mi NW 26.5 mph 35.7 mph N/A   Haze
6:33 PM 26.6 °F 12.4 °F 15.8 °F 64% 30.11 in 7.0 mi NW 21.9 mph 32.2 mph N/A   Scattered Clouds
6:52 PM 26.6 °F 11.4 °F 15.8 °F 64% 30.12 in 10.0 mi NW 25.3 mph 31.1 mph N/A   Scattered Clouds
7:13 PM 26.6 °F 13.1 °F 15.8 °F 64% 30.13 in 10.0 mi NW 19.6 mph 34.5 mph N/A   Scattered Clouds
7:32 PM 24.8 °F 9.3 °F 15.8 °F 69% 30.14 in 10.0 mi NW 24.2 mph 34.5 mph N/A   Scattered Clouds
7:52 PM 24.8 °F 9.3 °F 15.8 °F 69% 30.15 in 10.0 mi NW 24.2 mph 28.8 mph N/A   Scattered Clouds
8:13 PM 24.8 °F 9.6 °F 15.8 °F 69% 30.16 in 10.0 mi NW 23.0 mph 29.9 mph N/A   Scattered Clouds
8:32 PM 23.0 °F 6.0 °F 15.8 °F 74% 30.17 in 10.0 mi NW 27.6 mph 35.7 mph N/A   Clear
8:52 PM 23.0 °F 6.9 °F 17.6 °F 80% 30.18 in 10.0 mi NW 24.2 mph 29.9 mph N/A   Scattered Clouds
9:13 PM 23.0 °F 6.9 °F 17.6 °F 80% 30.18 in 10.0 mi NNW 24.2 mph 33.4 mph N/A   Mostly Cloudy
9:32 PM 23.0 °F 4.6 °F 17.6 °F 80% 30.19 in 10.0 mi NW 33.4 mph 39.1 mph N/A   Overcast
9:53 PM 23.0 °F 6.3 °F 17.6 °F 80% 30.19 in 7.0 mi NW 26.5 mph 33.4 mph N/A Snow Light Snow
10:12 PM 23.0 °F 6.3 °F 17.6 °F 80% 30.20 in 10.0 mi NNW 26.5 mph 36.8 mph N/A Snow Light Snow
10:32 PM 23.0 °F 6.6 °F 15.8 °F 74% 30.20 in 10.0 mi NW 25.3 mph 31.1 mph N/A   Overcast
10:53 PM 23.0 °F 7.6 °F 15.8 °F 74% 30.21 in 10.0 mi NW 21.9 mph 29.9 mph N/A Snow Light Snow
11:12 PM 23.0 °F 7.6 °F 15.8 °F 74% 30.22 in 10.0 mi NW 21.9 mph 29.9 mph N/A   Overcast
11:32 PM 23.0 °F 8.7 °F 15.8 °F 74% 30.22 in 10.0 mi NNW 18.4 mph 28.8 mph N/A   Overcast
11:53 PM 21.2 °F 6.0 °F 15.8 °F 80% 30.23 in 10.0 mi NW 19.6 mph 23.0 mph N/A   Overcast